Regional Weather Roundup
Issued by NWS

Home | Current Version | Previous Version | Text Only | Print | Product List | Glossary On
Versions: 1 2 3 4 5 6 7 8 9 10 11 12 13 14 15 16 17 18 19 20 21 22 23 24 25 26 27
000
ASUS44 KBMX 261710
RWRAL

ALABAMA REGIONAL WEATHER ROUNDUP
NATIONAL WEATHER SERVICE BIRMINGHAM AL
1200 PM CDT TUE SEP 26 2017

NOTE: "FAIR" INDICATES FEW OR NO CLOUDS BELOW 12,000 FEET
WITH NO SIGNIFICANT WEATHER AND/OR OBSTRUCTIONS TO VISIBILITY.

THE REMARK "TC" DENOTES TEMPERATURE IN DEGREES CELSIUS.

ALZ001>011-014-016>018-020-261800-
NORTH ALABAMA

CITY           SKY/WX    TMP DP  RH WIND       PRES   REMARKS
MUSCLE SHOALS  PTSUNNY   87  66  49 NW5       30.02F
HUNTSVILLE     MOSUNNY   85  68  56 VRB3      30.02S
DECATUR        SUNNY     85  68  56 CALM      30.02F
HALEYVILLE     FAIR      86  66  51 VRB3      30.05F
GADSDEN        SUNNY     85  67  54 N3        30.02F
$$

ALZ012-013-022-023-030>036-040>044-261800-
WEST CENTRAL ALABAMA

CITY           SKY/WX    TMP DP  RH WIND       PRES   REMARKS
TUSCALOOSA     SUNNY     88  65  46 NE6       29.99F HX  90
DEMOPOLIS        N/A     87  64  46 CALM      29.97F
$$

ALZ015-024>026-033>036-041>044-261800-
CENTRAL ALABAMA

CITY           SKY/WX    TMP DP  RH WIND       PRES   REMARKS
BIRMINGHAM     MOSUNNY   85  63  47 E6        30.03F
MONTGOMERY     SUNNY     89  63  41 N6        29.98F HX  90
SHELBY CO ARPT SUNNY     84  65  52 CALM      30.01S
MAXWELL AFB    SUNNY     87  63  44 N6        29.97F
GREENVILLE     FAIR      90  61  37 VRB3      29.97F HX  90
SELMA          FAIR      86  63  45 CALM      29.97F
PRATTVILLE     FAIR      86  65  49 E3        29.97F
BESSEMER       FAIR      85  64  49 CALM      30.02F
TALLADEGA      FAIR     N/A N/A N/A MISG      30.01F
PELL CITY      SUNNY     84  66  54 E5        30.01F
MARION         FAIR      87  63  44 E3        29.97F
SYLACAUGA      FAIR      85  65  51 CALM      30.01F
$$

ALZ019-021-028-029-037-038-045>048-261800-
EAST CENTRAL ALABAMA

CITY           SKY/WX    TMP DP  RH WIND       PRES   REMARKS
ANNISTON       MOSUNNY   85  65  51 CALM      30.01F
ALEXANDER CITY MOSUNNY   82  65  57 N5        30.00F
AUBURN         NOT AVBL
$$

ALZ051>064-261800-
SOUTHWEST ALABAMA

CITY           SKY/WX    TMP DP  RH WIND       PRES   REMARKS
MOBILE         PTSUNNY   85  71  63 S5        29.96F HX  90
BROOKLEY FIELD MOSUNNY   85  72  65 VRB3      29.96F HX  91
EVERGREEN      MOSUNNY   88  64  44 VRB5      29.97F
$$

ALZ049-050-065>069-261800-
SOUTHEAST ALABAMA

CITY           SKY/WX    TMP DP  RH WIND       PRES   REMARKS
DOTHAN         SUNNY     88  61  40 VRB5      30.00S
OZARK          MOSUNNY   86  63  45 CALM      29.96F
TROY           SUNNY     86  64  47 MISG      29.98F
EUFAULA        PTSUNNY   88  68  51 N6        29.96F HX  91
$$




USA.gov is the U.S. government's official web portal to all federal, state and local government web resources and services.